�������l�o���
Date,Time,MP-1(��Sv/h),MP-2(��Sv/h),MP-3(��Sv/h),MP-4(��Sv/h),MP-5(��Sv/h),MP-6(��Sv/h),MP-7(��Sv/h),MP-8(��Sv/h),����,����(m/s),���J
2019/09/30,00:00,0.741,1.046,0.725,1.291,0.936,0.420,0.732,0.692,���k��,4.0,��
2019/09/30,00:10,0.738,1.044,0.725,1.289,0.937,0.422,0.733,0.693,���k��,3.6,��
2019/09/30,00:20,0.737,1.045,0.726,1.290,0.938,0.420,0.732,0.693,���k��,4.2,��
2019/09/30,00:30,0.739,1.044,0.723,1.289,0.939,0.421,0.733,0.693,�k��,4.4,��
2019/09/30,00:40,0.741,1.044,0.724,1.289,0.937,0.421,0.732,0.692,���k��,4.4,��
2019/09/30,00:50,0.739,1.046,0.722,1.291,0.936,0.423,0.731,0.694,���k��,4.6,��
2019/09/30,01:00,0.740,1.047,0.726,1.290,0.937,0.421,0.732,0.692,�k��,4.0,��
2019/09/30,01:10,0.739,1.045,0.725,1.291,0.938,0.422,0.732,0.693,�k��,4.4,��
2019/09/30,01:20,0.738,1.045,0.724,1.290,0.939,0.420,0.732,0.693,���k��,3.2,��
2019/09/30,01:30,0.739,1.047,0.724,1.291,0.938,0.421,0.733,0.693,���k��,3.7,��
2019/09/30,01:40,0.738,1.045,0.724,1.287,0.937,0.422,0.734,0.693,��,2.9,��
2019/09/30,01:50,0.739,1.045,0.724,1.291,0.937,0.421,0.733,0.694,��,2.2,��
2019/09/30,02:00,0.741,1.046,0.723,1.291,0.937,0.421,0.732,0.694,���k��,1.5,��
2019/09/30,02:10,0.739,1.043,0.725,1.293,0.939,0.420,0.734,0.692,�k��,1.5,��
2019/09/30,02:20,0.740,1.044,0.723,1.291,0.938,0.419,0.736,0.694,��,2.9,��
2019/09/30,02:30,0.740,1.046,0.724,1.289,0.941,0.420,0.734,0.693,���k��,4.5,��
2019/09/30,02:40,0.740,1.045,0.725,1.288,0.938,0.422,0.734,0.693,���k��,5.1,��
2019/09/30,02:50,0.739,1.042,0.724,1.291,0.936,0.421,0.733,0.693,���k��,5.7,��
2019/09/30,03:00,0.739,1.044,0.725,1.288,0.939,0.421,0.734,0.692,���k��,6.1,��
2019/09/30,03:10,0.738,1.045,0.724,1.290,0.939,0.421,0.733,0.691,���k��,5.5,��
2019/09/30,03:20,0.740,1.045,0.725,1.290,0.937,0.420,0.733,0.692,���k��,5.3,��
2019/09/30,03:30,0.738,1.043,0.725,1.290,0.936,0.420,0.732,0.692,���k��,6.6,��
2019/09/30,03:40,0.739,1.044,0.723,1.291,0.939,0.420,0.733,0.692,���k��,6.8,��
2019/09/30,03:50,0.738,1.044,0.722,1.291,0.938,0.420,0.733,0.692,�k��,6.1,��
2019/09/30,04:00,0.737,1.044,0.724,1.289,0.937,0.420,0.734,0.691,�k��,5.5,��
2019/09/30,04:10,0.737,1.044,0.724,1.291,0.935,0.421,0.734,0.692,�k��,5.8,��
2019/09/30,04:20,0.737,1.044,0.723,1.290,0.937,0.420,0.733,0.692,�k��,5.7,��
2019/09/30,04:30,0.740,1.043,0.722,1.293,0.938,0.421,0.732,0.691,�k��,5.6,��
2019/09/30,04:40,0.738,1.042,0.723,1.291,0.938,0.421,0.734,0.692,�k��,5.9,��
2019/09/30,04:50,0.738,1.043,0.722,1.288,0.938,0.420,0.732,0.692,�k��,6.6,��
2019/09/30,05:00,0.737,1.044,0.724,1.288,0.938,0.421,0.735,0.691,�k��,6.2,��
2019/09/30,05:10,0.737,1.042,0.723,1.289,0.937,0.422,0.734,0.692,�k��,5.3,��
2019/09/30,05:20,0.738,1.042,0.723,1.288,0.939,0.420,0.734,0.692,�k��,5.0,��
2019/09/30,05:30,0.736,1.042,0.723,1.290,0.939,0.420,0.732,0.693,�k��,5.1,��
2019/09/30,05:40,0.737,1.043,0.722,1.290,0.938,0.420,0.734,0.691,�k��,5.1,��
2019/09/30,05:50,0.736,1.043,0.721,1.290,0.939,0.420,0.734,0.692,�k�k��,4.8,��
2019/09/30,06:00,0.736,1.043,0.723,1.290,0.938,0.420,0.734,0.692,�k�k��,4.8,��
2019/09/30,06:10,0.736,1.043,0.722,1.290,0.938,0.420,0.731,0.690,�k�k��,4.3,��
2019/09/30,06:20,0.738,1.042,0.723,1.289,0.937,0.421,0.732,0.693,�k�k��,4.3,��
2019/09/30,06:30,0.737,1.045,0.723,1.291,0.938,0.421,0.733,0.692,�k,4.1,��
2019/09/30,06:40,0.738,1.041,0.722,1.291,0.937,0.421,0.735,0.692,�k,3.6,��
2019/09/30,06:50,0.738,1.043,0.722,1.290,0.938,0.420,0.733,0.693,�k,3.2,��
2019/09/30,07:00,0.739,1.042,0.724,1.289,0.938,0.420,0.734,0.692,�k,4.5,��
2019/09/30,07:10,0.737,1.043,0.723,1.290,0.937,0.419,0.735,0.693,�k,4.4,��
2019/09/30,07:20,0.738,1.044,0.721,1.291,0.937,0.421,0.735,0.693,�k�k��,4.1,��
2019/09/30,07:30,0.739,1.045,0.723,1.293,0.934,0.421,0.736,0.692,�k,3.4,��
2019/09/30,07:40,0.739,1.043,0.721,1.292,0.937,0.420,0.734,0.694,�k,2.6,��
2019/09/30,07:50,0.740,1.047,0.722,1.292,0.936,0.420,0.733,0.692,�k,2.6,��
2019/09/30,08:00,0.739,1.042,0.723,1.293,0.940,0.422,0.735,0.694,�k,2.6,��
2019/09/30,08:10,0.738,1.043,0.722,1.288,0.938,0.419,0.733,0.692,�k�k��,3.5,��
2019/09/30,08:20,0.739,1.041,0.723,1.292,0.940,0.418,0.732,0.694,�k�k��,4.9,��
2019/09/30,08:30,0.741,1.042,0.722,1.294,0.938,0.421,0.732,0.693,�k�k��,4.9,��
2019/09/30,08:40,0.739,1.039,0.724,1.292,0.939,0.419,0.732,0.694,�k�k��,4.4,��
2019/09/30,08:50,0.737,1.038,0.721,1.293,0.940,0.419,0.732,0.694,�k�k��,3.2,��
2019/09/30,09:00,0.738,1.041,0.721,1.294,0.941,0.418,0.734,0.693,�k��,3.9,��
2019/09/30,09:10,0.740,1.042,0.720,1.293,0.939,0.418,0.733,0.691,�k�k��,4.2,��
2019/09/30,09:20,0.740,1.037,0.722,1.294,0.939,0.418,0.735,0.691,�k�k��,4.6,��
2019/09/30,09:30,0.741,1.041,0.722,1.291,0.941,0.418,0.735,0.692,�k�k��,4.0,��
2019/09/30,09:40,0.741,1.043,0.722,1.293,0.940,0.418,0.734,0.691,�k�k��,4.2,��
2019/09/30,09:50,0.742,1.041,0.722,1.292,0.939,0.418,0.734,0.691,�k�k��,3.7,��
2019/09/30,10:00,0.740,1.038,0.721,1.295,0.939,0.418,0.734,0.691,�k��,3.5,��
2019/09/30,10:10,0.741,1.042,0.722,1.294,0.942,0.420,0.734,0.693,�k��,3.6,��
2019/09/30,10:20,0.741,1.045,0.721,1.293,0.941,0.419,0.733,0.692,�k��,3.3,��
2019/09/30,10:30,0.742,1.043,0.724,1.295,0.945,0.417,0.733,0.691,���k��,3.7,��
2019/09/30,10:40,0.742,1.045,0.723,1.294,0.945,0.417,0.734,0.693,���k��,3.3,��
2019/09/30,10:50,0.741,1.045,0.725,1.293,0.943,0.418,0.733,0.692,���k��,3.9,��
2019/09/30,11:00,0.742,1.045,0.724,1.294,0.946,0.417,0.734,0.692,���k��,3.5,��
2019/09/30,11:10,0.743,1.044,0.723,1.291,0.946,0.419,0.735,0.692,�k��,3.3,��
2019/09/30,11:20,0.742,1.045,0.724,1.294,0.946,0.419,0.734,0.693,���k��,3.7,��
2019/09/30,11:30,0.743,1.046,0.724,1.294,0.947,0.422,0.736,0.692,���k��,3.8,��
2019/09/30,11:40,0.743,1.049,0.724,1.294,0.945,0.420,0.735,0.692,��,3.4,��
2019/09/30,11:50,0.742,1.051,0.725,1.294,0.945,0.420,0.734,0.694,���k��,4.2,��
2019/09/30,12:00,0.744,1.051,0.725,1.294,0.945,0.421,0.733,0.694,���k��,3.7,��
2019/09/30,12:10,0.744,1.054,0.726,1.296,0.950,0.420,0.735,0.692,���k��,3.5,��
2019/09/30,12:20,0.743,1.054,0.725,1.296,0.947,0.421,0.734,0.694,�k��,2.6,��
2019/09/30,12:30,0.745,1.053,0.728,1.294,0.950,0.421,0.735,0.692,�k��,2.0,��
2019/09/30,12:40,0.744,1.055,0.726,1.295,0.948,0.423,0.733,0.693,���k��,2.3,��
2019/09/30,12:50,0.745,1.053,0.727,1.294,0.951,0.421,0.735,0.694,���k��,2.5,��
2019/09/30,13:00,0.744,1.055,0.727,1.296,0.949,0.421,0.736,0.693,���k��,2.2,��
2019/09/30,13:10,0.746,1.049,0.726,1.296,0.949,0.420,0.735,0.692,���k��,2.3,��
2019/09/30,13:20,0.744,1.048,0.726,1.295,0.950,0.420,0.736,0.694,���k��,2.5,��
2019/09/30,13:30,0.744,1.052,0.725,1.295,0.949,0.421,0.736,0.692,�k��,1.7,��
2019/09/30,13:40,0.742,1.050,0.725,1.295,0.950,0.420,0.734,0.693,���k��,2.0,��
2019/09/30,13:50,0.744,1.050,0.727,1.299,0.949,0.422,0.735,0.695,���k��,1.7,��
2019/09/30,14:00,0.744,1.050,0.727,1.297,0.950,0.421,0.737,0.693,��,2.0,��
2019/09/30,14:10,0.744,1.052,0.725,1.298,0.949,0.423,0.735,0.693,���k��,2.3,��
2019/09/30,14:20,0.745,1.052,0.726,1.296,0.952,0.422,0.735,0.693,���k��,2.3,��
2019/09/30,14:30,0.744,1.054,0.728,1.296,0.949,0.421,0.735,0.693,���k��,2.0,��
2019/09/30,14:40,0.745,1.054,0.725,1.298,0.949,0.422,0.735,0.693,���쓌,2.3,��
2019/09/30,14:50,0.744,1.053,0.726,1.297,0.952,0.422,0.736,0.693,���k��,2.2,��
2019/09/30,15:00,0.746,1.056,0.726,1.295,0.950,0.422,0.736,0.693,���k��,2.3,��
2019/09/30,15:10,0.745,1.053,0.722,1.295,0.951,0.422,0.734,0.694,���쓌,2.6,��
2019/09/30,15:20,0.745,1.053,0.727,1.296,0.952,0.421,0.734,0.692,��,2.3,��
2019/09/30,15:30,0.744,1.059,0.725,1.299,0.953,0.423,0.734,0.693,��,2.6,��
2019/09/30,15:40,0.744,1.057,0.727,1.295,0.952,0.422,0.735,0.693,���쓌,2.6,��
2019/09/30,15:50,0.745,1.060,0.728,1.299,0.949,0.422,0.736,0.692,�쓌,2.3,��
2019/09/30,16:00,0.744,1.058,0.728,1.299,0.950,0.420,0.734,0.694,���쓌,2.2,��
2019/09/30,16:10,0.744,1.059,0.728,1.297,0.950,0.420,0.734,0.693,���쓌,1.2,��
2019/09/30,16:20,0.744,1.061,0.728,1.295,0.950,0.421,0.735,0.691,�쓌,2.0,��
2019/09/30,16:30,0.744,1.060,0.728,1.297,0.951,0.420,0.735,0.692,��쓌,1.2,��
2019/09/30,16:40,0.743,1.062,0.726,1.296,0.952,0.421,0.735,0.693,�쓌,1.2,��
2019/09/30,16:50,0.743,1.060,0.727,1.296,0.952,0.423,0.737,0.694,�쓌,2.2,��
2019/09/30,17:00,0.745,1.062,0.726,1.296,0.952,0.421,0.735,0.693,��쓌,2.0,��
2019/09/30,17:10,0.745,1.061,0.729,1.297,0.951,0.425,0.735,0.695,��쓌,2.0,��
2019/09/30,17:20,0.745,1.064,0.728,1.299,0.952,0.422,0.735,0.696,�쓌,2.0,��
2019/09/30,17:30,0.746,1.062,0.730,1.298,0.953,0.422,0.736,0.695,��쓌,1.7,��
2019/09/30,17:40,0.745,1.063,0.728,1.298,0.955,0.424,0.735,0.695,��,2.0,��
2019/09/30,17:50,0.747,1.065,0.730,1.296,0.952,0.424,0.736,0.695,��쓌,2.2,��
2019/09/30,18:00,0.745,1.063,0.730,1.299,0.953,0.422,0.735,0.694,��,2.3,��
2019/09/30,18:10,0.748,1.064,0.731,1.300,0.955,0.422,0.736,0.696,��,2.3,��
2019/09/30,18:20,0.746,1.064,0.733,1.298,0.953,0.422,0.736,0.695,��쐼,2.8,��
2019/09/30,18:30,0.746,1.064,0.733,1.296,0.954,0.421,0.737,0.695,��,2.9,��
2019/09/30,18:40,0.747,1.063,0.730,1.300,0.953,0.424,0.737,0.695,��,2.8,��
2019/09/30,18:50,0.747,1.064,0.729,1.298,0.955,0.425,0.736,0.696,��쐼,2.8,��
2019/09/30,19:00,0.745,1.063,0.728,1.298,0.955,0.424,0.737,0.695,��쐼,2.0,��
2019/09/30,19:10,0.745,1.064,0.730,1.299,0.954,0.422,0.735,0.695,��,3.0,��
2019/09/30,19:20,0.746,1.063,0.731,1.300,0.954,0.422,0.737,0.695,��쐼,2.5,��
2019/09/30,19:30,0.744,1.064,0.729,1.299,0.953,0.424,0.736,0.696,��쐼,2.5,��
2019/09/30,19:40,0.747,1.060,0.731,1.297,0.954,0.422,0.736,0.695,��쐼,2.3,��
2019/09/30,19:50,0.746,1.062,0.732,1.296,0.954,0.423,0.736,0.697,��쐼,2.5,��
2019/09/30,20:00,0.747,1.062,0.732,1.297,0.953,0.423,0.736,0.695,��쐼,3.5,��
2019/09/30,20:10,0.747,1.061,0.730,1.301,0.955,0.423,0.736,0.694,��쐼,3.7,��
2019/09/30,20:20,0.745,1.061,0.729,1.299,0.953,0.423,0.737,0.696,��쐼,3.9,��
2019/09/30,20:30,0.746,1.062,0.731,1.298,0.953,0.423,0.737,0.695,��쐼,2.9,��
2019/09/30,20:40,0.747,1.059,0.732,1.298,0.953,0.423,0.737,0.697,��쐼,3.2,��
2019/09/30,20:50,0.746,1.060,0.731,1.297,0.952,0.423,0.737,0.696,��쐼,3.3,��
2019/09/30,21:00,0.747,1.060,0.730,1.298,0.956,0.422,0.737,0.694,��쐼,3.3,��
2019/09/30,21:10,0.747,1.061,0.730,1.297,0.954,0.423,0.735,0.695,��쐼,2.8,��
2019/09/30,21:20,0.744,1.063,0.731,1.299,0.955,0.423,0.736,0.695,��,3.1,��
2019/09/30,21:30,0.746,1.061,0.733,1.298,0.953,0.424,0.736,0.695,��,3.2,��
2019/09/30,21:40,0.744,1.061,0.731,1.299,0.954,0.423,0.737,0.695,��,3.7,��
2019/09/30,21:50,0.746,1.059,0.732,1.298,0.954,0.423,0.737,0.695,��쐼,3.5,��
2019/09/30,22:00,0.745,1.060,0.730,1.302,0.955,0.424,0.736,0.694,��,3.0,��
2019/09/30,22:10,0.745,1.060,0.731,1.300,0.953,0.423,0.736,0.696,��,2.3,��
2019/09/30,22:20,0.744,1.058,0.729,1.296,0.953,0.423,0.736,0.695,��,2.6,��
2019/09/30,22:30,0.746,1.061,0.731,1.301,0.952,0.422,0.738,0.696,��,2.0,��
2019/09/30,22:40,0.745,1.058,0.728,1.298,0.954,0.422,0.737,0.696,��,2.2,��
2019/09/30,22:50,0.747,1.060,0.730,1.299,0.954,0.424,0.736,0.696,��,2.3,��
2019/09/30,23:00,0.745,1.058,0.731,1.300,0.953,0.425,0.737,0.695,��쓌,2.3,��
2019/09/30,23:10,0.745,1.059,0.730,1.299,0.954,0.424,0.738,0.694,��쓌,2.3,��
2019/09/30,23:20,0.743,1.060,0.730,1.298,0.950,0.424,0.737,0.695,��,1.7,��
2019/09/30,23:30,0.745,1.059,0.730,1.296,0.952,0.424,0.738,0.695,��쓌,1.5,��
2019/09/30,23:40,0.745,1.061,0.729,1.302,0.954,0.424,0.737,0.695,��,1.2,��
2019/09/30,23:50,0.744,1.061,0.730,1.299,0.954,0.422,0.738,0.695,��,1.4,��
